When you browse on this site, cookies collect data to enhance your experience and personalize the content and advertising you see.
Visit our Privacy Policy to learn more. By continuing to use the site, you agree to this use of cookies and data.
  • In Hungary
  • List of Countries
  • For 7 days
  • Water Temperature
  • Satellite Maps
  • Weather Map
  • News
  • Weather Widgets
  • user-avatar
    Login

    Hourly Weather Huaidian

    Today, 12 December, Wednesday

    Time Temperature Precipitation Wind Pressure Humidity
    00:00 -3°C° 0 mm 2 mps 774 mmHg 41%
    01:00 -3°C° 0 mm 2 mps 774 mmHg 40%
    02:00 -3°C° 0 mm 2 mps 775 mmHg 39%
    03:00 -1°C° 0 mm 1 mps 774 mmHg 39%
    04:00 -2°C° 0 mm 1 mps 774 mmHg 39%
    05:00 -2°C° 0 mm 1 mps 774 mmHg 39%
    06:00 -2°C° 0 mm 1 mps 774 mmHg 39%
    07:00 -1°C° 0 mm 1 mps 774 mmHg 39%
    08:00 -1°C° 0 mm 1 mps 774 mmHg 35%
    09:00 0°C° 0 mm 1 mps 774 mmHg 31%
    10:00 +2°C° 0 mm 1 mps 774 mmHg 26%
    11:00 +3°C° 0 mm 1 mps 774 mmHg 22%
    12:00 +4°C° 0 mm 1 mps 774 mmHg 21%
    13:00 +5°C° 0 mm 1 mps 773 mmHg 21%
    14:00 +6°C° 0 mm 1 mps 772 mmHg 20%
    15:00 +5°C° 0 mm 1 mps 772 mmHg 23%
    16:00 +4°C° 0 mm 1 mps 772 mmHg 27%
    17:00 +3°C° 0 mm 1 mps 771 mmHg 30%
    18:00 +2°C° 0 mm 1 mps 771 mmHg 32%
    19:00 -1°C° 0 mm 2 mps 771 mmHg 34%
    20:00 -1°C° 0 mm 2 mps 771 mmHg 37%
    21:00 -2°C° 0 mm 2 mps 771 mmHg 37%
    22:00 -2°C° 0 mm 2 mps 771 mmHg 38%
    23:00 -2°C° 0 mm 2 mps 771 mmHg 39%

    Tomorrow, 13 December, Thursday

    Time Temperature Precipitation Wind Pressure Humidity
    00:00 -2°C° 0 mm 2 mps 771 mmHg 39%
    01:00 -2°C° 0 mm 2 mps 771 mmHg 39%
    02:00 0°C° 0 mm 1 mps 771 mmHg 39%
    03:00 -2°C° 0 mm 2 mps 771 mmHg 40%
    04:00 -2°C° 0 mm 2 mps 771 mmHg 40%
    05:00 -2°C° 0 mm 2 mps 771 mmHg 41%
    06:00 0°C° 0 mm 1 mps 771 mmHg 41%
    07:00 0°C° 0 mm 1 mps 771 mmHg 41%
    08:00 0°C° 0 mm 1 mps 771 mmHg 41%
    09:00 +2°C° 0 mm 1 mps 772 mmHg 37%
    10:00 +4°C° 0 mm 1 mps 772 mmHg 32%
    11:00 +6°C° 0 mm 1 mps 773 mmHg 27%
    12:00 +7°C° 0 mm 1 mps 772 mmHg 26%
    13:00 +8°C° 0 mm 1 mps 772 mmHg 25%
    14:00 +7°C° 0 mm 2 mps 771 mmHg 24%
    15:00 +6°C° 0 mm 2 mps 771 mmHg 28%
    16:00 +5°C° 0 mm 2 mps 771 mmHg 33%
    17:00 +4°C° 0 mm 2 mps 771 mmHg 37%
    18:00 +3°C° 0 mm 2 mps 772 mmHg 41%
    19:00 +2°C° 0 mm 2 mps 772 mmHg 44%
    20:00 +1°C° 0 mm 2 mps 773 mmHg 47%
    21:00 -1°C° 0 mm 2 mps 773 mmHg 49%
    22:00 -1°C° 0 mm 2 mps 773 mmHg 50%
    23:00 -1°C° 0 mm 2 mps 773 mmHg 51%

    Day after tomorrow, 14 December, Friday

    Time Temperature Precipitation Wind Pressure Humidity
    00:00 -1°C° 0 mm 2 mps 773 mmHg 52%
    01:00 -2°C° 0 mm 2 mps 773 mmHg 52%
    02:00 -2°C° 0 mm 2 mps 773 mmHg 52%
    03:00 -2°C° 0 mm 2 mps 773 mmHg 53%
    04:00 -2°C° 0 mm 2 mps 773 mmHg 53%
    05:00 -2°C° 0 mm 2 mps 773 mmHg 53%
    06:00 -2°C° 0 mm 2 mps 773 mmHg 52%
    07:00 -2°C° 0 mm 2 mps 773 mmHg 52%
    08:00 -2°C° 0 mm 2 mps 774 mmHg 51%
    09:00 0°C° 0 mm 3 mps 774 mmHg 46%
    10:00 +2°C° 0 mm 3 mps 774 mmHg 42%
    11:00 +4°C° 0 mm 4 mps 774 mmHg 38%
    12:00 +5°C° 0 mm 4 mps 773 mmHg 37%
    13:00 +7°C° 0 mm 3 mps 772 mmHg 37%
    14:00 +7°C° 0 mm 3 mps 771 mmHg 36%
    15:00 +5°C° 0 mm 3 mps 771 mmHg 41%
    16:00 +4°C° 0 mm 3 mps 771 mmHg 47%
    17:00 +4°C° 0 mm 2 mps 771 mmHg 52%
    18:00 +4°C° 0 mm 2 mps 771 mmHg 57%
    19:00 +3°C° 0 mm 2 mps 771 mmHg 62%
    20:00 +1°C° 0 mm 3 mps 771 mmHg 67%
    21:00 +2°C° 0 mm 2 mps 771 mmHg 71%
    22:00 +2°C° 0 mm 2 mps 771 mmHg 75%
    23:00 +1°C° 0 mm 2 mps 771 mmHg 79%

    15 December, Saturday

    Time Temperature Precipitation Wind Pressure Humidity
    00:00 +1°C° 0 mm 2 mps 771 mmHg 82%
    01:00 +1°C° 0 mm 2 mps 771 mmHg 84%
    02:00 +1°C° 0 mm 2 mps 770 mmHg 87%
    03:00 +1°C° 0 mm 2 mps 770 mmHg 87%
    04:00 +1°C° 0 mm 2 mps 770 mmHg 86%
    05:00 +2°C° 0 mm 2 mps 769 mmHg 86%
    06:00 +2°C° 0 mm 2 mps 769 mmHg 85%
    07:00 +2°C° 0 mm 2 mps 769 mmHg 85%
    08:00 +3°C° 0 mm 1 mps 770 mmHg 85%
    09:00 +5°C° 0 mm 1 mps 770 mmHg 79%
    10:00 +6°C° 0 mm 2 mps 770 mmHg 73%
    11:00 +7°C° 0 mm 2 mps 770 mmHg 67%
    12:00 +9°C° 0 mm 1 mps 769 mmHg 62%
    13:00 +10°C° 0 mm 1 mps 768 mmHg 58%
    14:00 +11°C° 0 mm 1 mps 767 mmHg 54%
    15:00 +10°C° 0 mm 1 mps 767 mmHg 56%
    16:00 +10°C° 0 mm 1 mps 767 mmHg 58%
    17:00 +9°C° 0 mm 1 mps 766 mmHg 60%
    18:00 +8°C° 0 mm 1 mps 767 mmHg 61%
    19:00 +8°C° 0 mm 1 mps 767 mmHg 63%
    20:00 +7°C° 0 mm 1 mps 767 mmHg 64%
    21:00 +6°C° 0 mm 2 mps 767 mmHg 63%
    22:00 +5°C° 0 mm 2 mps 767 mmHg 63%
    23:00 +5°C° 0 mm 2 mps 767 mmHg 63%

    16 December, Sunday

    Time Temperature Precipitation Wind Pressure Humidity
    00:00 +5°C° 0 mm 2 mps 767 mmHg 61%
    01:00 +3°C° 0 mm 3 mps 766 mmHg 60%
    02:00 +3°C° 0 mm 3 mps 766 mmHg 58%
    03:00 +3°C° 0 mm 3 mps 766 mmHg 56%
    04:00 +2°C° 0 mm 3 mps 766 mmHg 54%
    05:00 +2°C° 0 mm 3 mps 766 mmHg 51%
    06:00 +2°C° 0 mm 3 mps 766 mmHg 50%
    07:00 +2°C° 0 mm 3 mps 766 mmHg 48%
    08:00 +2°C° 0 mm 3 mps 767 mmHg 46%
    09:00 +4°C° 0 mm 4 mps 767 mmHg 40%
    10:00 +7°C° 0 mm 4 mps 767 mmHg 34%
    11:00 +9°C° 0 mm 5 mps 767 mmHg 28%
    12:00 +10°C° 0 mm 5 mps 766 mmHg 26%
    13:00 +12°C° 0 mm 5 mps 766 mmHg 24%
    14:00 +13°C° 0 mm 5 mps 765 mmHg 22%
    15:00 +12°C° 0 mm 5 mps 765 mmHg 25%
    16:00 +11°C° 0 mm 4 mps 765 mmHg 28%
    17:00 +10°C° 0 mm 3 mps 764 mmHg 31%
    18:00 +9°C° 0 mm 3 mps 765 mmHg 33%
    19:00 +8°C° 0 mm 3 mps 765 mmHg 34%
    20:00 +7°C° 0 mm 3 mps 765 mmHg 35%
    21:00 +5°C° 0 mm 3 mps 766 mmHg 35%
    22:00 +5°C° 0 mm 3 mps 766 mmHg 35%
    23:00 +5°C° 0 mm 3 mps 766 mmHg 35%

    17 December, Monday

    Time Temperature Precipitation Wind Pressure Humidity
    00:00 +4°C° 0 mm 3 mps 766 mmHg 35%
    01:00 +4°C° 0 mm 3 mps 766 mmHg 35%
    02:00 +3°C° 0 mm 3 mps 766 mmHg 35%
    03:00 +3°C° 0 mm 3 mps 766 mmHg 36%
    04:00 +4°C° 0 mm 2 mps 766 mmHg 36%
    05:00 +3°C° 0 mm 2 mps 766 mmHg 37%
    06:00 +3°C° 0 mm 2 mps 766 mmHg 37%
    07:00 +3°C° 0 mm 2 mps 766 mmHg 38%
    08:00 +3°C° 0 mm 2 mps 767 mmHg 39%
    09:00 +5°C° 0 mm 2 mps 767 mmHg 35%
    10:00 +7°C° 0 mm 2 mps 767 mmHg 30%
    11:00 +9°C° 0 mm 2 mps 767 mmHg 26%
    12:00 +10°C° 0 mm 2 mps 766 mmHg 25%
    13:00 +12°C° 0 mm 3 mps 765 mmHg 23%
    14:00 +13°C° 0 mm 3 mps 764 mmHg 22%
    15:00 +12°C° 0 mm 3 mps 764 mmHg 25%
    16:00 +12°C° 0 mm 2 mps 764 mmHg 28%
    17:00 +10°C° 0 mm 2 mps 763 mmHg 31%
    18:00 +9°C° 0 mm 2 mps 763 mmHg 32%
    19:00 +8°C° 0 mm 2 mps 764 mmHg 34%
    20:00 +7°C° 0 mm 2 mps 764 mmHg 36%
    21:00 +7°C° 0 mm 2 mps 763 mmHg 38%
    22:00 +7°C° 0 mm 2 mps 763 mmHg 41%
    23:00 +6°C° 0 mm 2 mps 763 mmHg 43%
    Show more